Location: Bannatyne
(13.0833°N, 59.5333°W)
Time: 21:20:22
(UTC+00:00)

deb Explorer IX - Pass Details

Date: 27 January 2020
Orbit: 549 x 1099 km, 38.8° (Epoch: 19 February)

Event Time Altitude Azimuth Distance (km) Brightness Sun altitude
Rises 07:17:59 0° 316° (NW) 3,847 - -44.8°
Reaches altitude 10° 07:20:55 10° 321° (NW) 2,845 - -44.1°
Maximum altitude 07:27:36 50° 35° (NE) 1,205 - -42.5°
Exits shadow 07:31:07 24° 99° (E) 1,765 ? -41.6°
Drops below altitude 10° 07:33:29 10° 110° (ESE) 2,508 ? -41.1°
Sets 07:35:55 0° 115° (ESE) 3,358 ? -40.5°
